Flag for U.S.A. Weather past 2 weeks in San Bernardino, California, U.S.A.

Now
65 °F

Clear.


Feels Like: 65 °F
Forecast: 62 / 92 °F
Wind: No wind

Location: Riverside Municipal Airport

Current Time: Sep 22, 2014 at 1:53:30 AM

Latest Report: Sep 22, 2014 at 12:53 AM


Visibility: 10 mi

Pressure: 29.93 "Hg

Humidity: 81%

Dew point: 59 °F

Location of San BernardinoLocation

Historic Weather in San Bernardino — Graph

°F

San Bernardino temperature yesterday

Maximum temperature yesterday: 84 °F (at 3:53 PM)
Minimum temperature yesterday: 64 °F (at 2:53 AM)
Average temperature yesterday: 71 °F

Past Weeks' High & Low Weather Summary

 TemperatureHumidityPressure
High107 °F (Sep 14, 1:53 PM)85% (Sep 20, 5:53 AM)30.00 "Hg (Sep 20, 5:53 AM)
Low62 °F (Sep 10, 5:53 AM)13% (Sep 14, 1:53 PM)29.63 "Hg (Sep 14, 3:53 PM)
Average81 °F47%29.79 "Hg
* Reported Sep 7 12:53 AM — Sep 22 12:53 AM, San Bernardino, Weather by CustomWeather, © 2014

Note: Actual official high and low records may vary slightly from our data, if they occured in-between our weather recording intervals... More about our weather records

Advertising

San Bernardino weather history for previous 24 hours

 ConditionsComfort  
Time TempWeatherWind HumidityBarometerVisibility
12:53 AM
Sep 22
65 °FClear.No wind81%29.93 "Hg10 mi
11:53 PM
Sep 21
67 °FClear.No wind76%29.93 "Hg10 mi
10:53 PM68 °FClear.3 mph73%29.93 "Hg10 mi
9:53 PM69 °FClear.No wind70%29.92 "Hg10 mi
8:53 PM71 °FClear.6 mph66%29.91 "Hg10 mi
7:53 PM73 °FClear.9 mph59%29.89 "Hg10 mi
6:53 PM76 °FSunny.8 mph54%29.88 "Hg10 mi
5:53 PM81 °FSunny.12 mph44%29.86 "Hg10 mi
4:53 PM83 °FSunny.9 mph43%29.86 "Hg10 mi
3:53 PM84 °FSunny.5 mph41%29.87 "Hg10 mi
2:53 PM82 °FSunny.3 mph44%29.88 "Hg10 mi
1:53 PM79 °FSunny.3 mph52%29.90 "Hg10 mi
12:53 PM75 °FSunny.6 mph60%29.93 "Hg10 mi
11:53 AM70 °FOvercast.6 mph71%29.96 "Hg10 mi
10:53 AM68 °FOvercast.No wind76%29.97 "Hg9 mi
9:53 AM68 °FOvercast.No wind76%29.97 "Hg9 mi
8:53 AM67 °FOvercast.5 mph79%29.96 "Hg10 mi
8:02 AM66 °FOvercast.No wind78%30.00 "Hg10 mi
7:53 AM66 °FOvercast.No wind78%29.95 "Hg10 mi
6:53 AM66 °FOvercast.No wind81%29.94 "Hg10 mi
5:53 AM65 °FOvercast.No wind85%29.92 "Hg10 mi
4:53 AM65 °FOvercast.No wind81%29.92 "Hg10 mi
3:53 AM64 °FPassing clouds.No wind84%29.91 "Hg10 mi
2:53 AM64 °FClear.3 mph84%29.91 "Hg10 mi
1:53 AM65 °FClear.5 mph81%29.91 "Hg10 mi
Weather by CustomWeather, © 2014

See weather overviewHow to use our weather pages